Wind_Speed
20 23 26 30 34 37 40 42 44 44 43 44 45 46 48 49 52 54 57 60 62 64 65 67 68 68 68 66 64 63 62 61 61 62 63 63 64 66 68 69 69 66 60 53
19 22 25 28 33 37 40 44 45 46 46 46 47 47 48 50 52 54 57 60 62 64 65 66 67 67 66 65 63 61 60 60 60 61 62 63 64 65 66 68 68 66 62 55
18 22 25 29 33 36 40 45 47 48 49 49 48 49 49 51 52 55 58 60 62 63 64 65 66 66 65 63 62 60 60 59 59 60 61 62 63 64 65 66 67 66 64 58
19 22 27 30 33 37 40 44 48 49 51 51 51 51 51 52 53 55 58 60 61 63 64 64 65 65 64 63 61 60 59 58 58 58 60 61 62 63 64 65 66 65 64 61
21 24 26 30 34 38 41 43 48 51 53 53 53 53 52 53 54 56 58 60 61 62 63 63 64 64 63 62 60 59 58 57 57 57 58 60 61 62 63 63 64 64 64 62
23 26 29 32 35 39 42 45 49 52 54 55 56 55 54 54 55 56 58 59 61 62 63 63 63 63 62 61 60 58 57 56 56 56 57 59 60 61 62 63 63 64 63 62
24 27 29 32 35 39 42 45 49 52 54 56 57 56 55 55 55 56 58 59 61 62 62 62 62 62 62 60 59 57 56 55 55 55 56 57 59 60 60 61 62 62 62 61
26 28 30 33 36 39 41 44 48 51 54 56 58 58 57 56 56 56 57 59 60 61 61 62 62 61 61 60 58 57 55 55 54 54 55 56 57 58 58 59 59 59 59 59
27 29 31 33 35 38 41 44 47 50 53 56 58 59 59 57 57 57 58 59 60 61 61 61 61 61 60 59 58 56 55 54 54 54 54 54 55 55 56 56 57 57 57 57
28 29 31 33 36 39 41 44 47 50 53 56 58 60 60 59 58 58 58 58 59 60 60 60 60 60 60 59 57 55 53 53 53 53 53 54 54 54 54 54 54 55 55 55
30 31 31 32 36 39 41 44 46 49 52 55 58 60 60 60 59 58 58 58 59 59 60 59 59 59 59 58 57 55 53 52 52 52 52 53 53 53 53 53 54 54 54 54
34 33 34 35 38 40 42 44 47 49 52 54 57 60 61 61 60 59 58 58 58 59 59 59 59 58 58 57 56 54 52 51 51 51 51 51 51 52 53 52 52 52 52 52
37 37 36 37 40 42 43 45 47 49 51 53 56 59 60 61 60 59 58 58 58 58 58 58 58 57 57 56 56 54 52 50 49 50 50 51 50 50 49 50 50 50 50 50
40 41 40 40 42 43 45 46 47 49 51 53 55 58 60 61 60 59 58 57 57 57 57 58 57 57 56 56 55 54 52 50 49 49 49 50 50 50 49 48 47 47 47 47
41 43 43 43 44 45 46 47 47 49 50 52 54 57 59 60 60 59 58 57 56 56 56 57 56 56 55 55 54 53 52 50 48 48 48 49 50 50 49 48 47 45 44 44
42 43 44 45 46 47 47 48 48 48 50 52 53 56 58 59 60 60 58 57 55 55 55 55 55 55 54 54 53 53 51 49 48 47 47 48 49 49 48 47 46 45 43 43
43 44 45 47 48 48 48 48 48 49 50 51 53 54 56 58 59 59 58 56 55 54 54 54 54 54 53 53 52 52 51 50 48 46 46 47 47 48 48 47 45 44 43 43
45 46 47 49 50 50 49 49 49 49 49 51 52 53 55 57 58 59 58 56 54 53 53 53 53 53 52 52 52 51 51 49 48 46 45 46 46 47 47 46 45 43 42 41
49 50 50 50 50 51 51 50 49 49 49 50 51 52 54 56 57 58 58 56 53 51 51 52 52 52 51 51 50 51 50 49 47 46 45 45 45 46 46 46 44 42 41 40
54 53 53 51 51 51 51 51 50 50 49 49 50 51 53 54 56 57 57 56 52 50 50 50 50 50 50 50 49 49 49 49 47 45 44 44 44 45 45 45 43 41 40 39
59 57 55 53 52 52 52 52 51 50 49 49 50 51 52 53 55 56 57 55 52 50 49 49 49 49 49 48 48 48 48 48 47 45 44 43 43 43 44 44 43 41 39 38
61 59 58 56 55 55 54 53 52 51 50 49 49 50 51 52 53 55 56 54 51 49 47 47 47 47 48 47 47 47 47 47 46 45 43 42 42 42 42 43 42 40 39 38
60 58 56 56 56 57 57 55 53 52 50 49 49 49 50 51 52 53 54 54 50 47 46 46 46 46 46 46 46 45 46 46 46 44 43 41 40 40 41 42 41 40 38 37
58 55 53 53 55 56 56 55 54 52 50 50 49 49 49 50 51 52 53 53 49 46 44 44 44 44 45 45 44 44 45 45 45 44 42 40 39 38 39 40 40 39 38 37
56 54 53 52 53 54 55 55 54 51 50 49 49 48 48 48 49 51 52 52 48 45 43 43 43 43 43 44 43 43 43 44 44 43 42 40 38 37 37 38 39 38 37 37
54 53 52 52 53 54 54 53 52 51 50 49 48 48 47 47 48 49 50 50 47 44 42 41 42 42 42 42 42 42 42 43 43 43 41 39 37 36 36 36 37 37 36 36
54 52 52 52 52 52 52 53 52 51 50 49 48 47 47 47 47 48 49 48 46 43 41 40 40 40 41 41 41 41 41 41 42 42 41 39 36 35 35 35 35 35 35 35
Wind_Direction
10 11 11 11 10 7 5 4 0 357 353 350 347 346 345 344 344 345 346 346 347 347 347 347 347 348 348 349 350 350 351 353 355 356 357 358 359 0 1 2 4 6 6 6
1 4 6 7 8 7 5 4 2 359 356 352 349 347 346 345 345 345 347 347 348 348 348 348 349 349 350 350 351 352 353 355 357 358 359 1 2 3 4 5 7 9 10 10
351 355 356 2 5 6 5 3 2 359 357 354 351 348 347 347 346 346 347 348 349 349 349 350 350 351 351 352 352 353 355 357 358 359 1 2 4 5 6 8 9 11 12 13
342 347 354 355 357 1 3 2 1 359 357 355 352 350 348 347 347 347 348 348 349 350 351 351 351 352 352 353 354 355 356 358 359 1 3 4 6 7 8 9 11 13 14 16
333 340 345 349 352 355 358 360 359 359 358 356 353 351 349 348 348 347 348 349 350 351 352 352 352 353 353 354 355 356 357 359 360 2 4 6 7 8 9 11 12 14 15 17
325 332 340 344 347 351 351 355 357 357 356 355 354 352 349 348 348 348 348 349 350 351 352 353 353 353 354 355 356 357 358 359 0 2 5 6 8 9 10 11 13 14 16 18
317 325 332 338 343 346 350 352 352 354 354 354 353 352 350 349 348 348 348 350 351 352 353 354 354 354 355 355 357 358 359 360 1 3 5 7 8 10 11 12 13 14 16 17
311 320 327 334 338 342 345 347 349 350 351 352 352 352 350 349 348 348 349 350 351 352 353 354 354 355 355 356 357 358 359 0 1 3 5 7 8 10 11 12 13 14 15 17
307 315 320 327 331 336 339 343 345 347 349 350 351 351 350 349 348 348 349 350 351 352 353 354 355 355 355 356 357 358 359 0 1 2 4 6 8 9 10 12 13 14 15 16
300 307 313 320 325 331 335 338 341 344 346 347 349 349 349 348 348 348 348 349 350 352 353 354 355 355 356 356 357 358 359 0 1 2 3 5 6 8 9 11 12 13 15 16
293 299 305 313 319 324 330 334 337 340 342 344 346 348 348 348 347 347 348 349 350 351 352 353 354 355 356 356 357 358 359 0 1 2 3 3 4 6 8 10 11 13 14 15
290 295 302 309 314 319 325 329 333 337 339 341 343 345 346 347 347 347 347 348 349 351 352 353 354 355 356 356 357 358 359 360 1 2 2 3 3 4 5 8 9 11 12 14
287 292 298 305 310 315 319 324 328 332 335 338 341 343 345 346 346 346 346 347 348 350 351 353 354 355 355 356 357 358 358 359 0 1 2 3 3 4 5 5 6 8 10 12
282 288 294 300 305 310 314 319 324 328 331 335 338 340 342 344 345 345 345 346 347 349 351 352 353 354 354 355 356 357 358 358 359 0 1 2 2 3 4 5 6 6 8 10
278 284 291 296 300 304 309 314 319 324 327 331 334 337 340 342 343 344 344 344 346 348 350 351 352 353 354 354 356 356 357 358 358 359 0 1 1 2 3 3 4 6 7 8
273 279 285 290 295 299 304 309 314 319 323 327 330 334 337 339 341 342 343 343 344 347 348 350 351 352 353 354 355 356 357 357 357 358 359 360 0 1 1 2 3 4 6 7
270 275 279 284 289 294 299 304 309 314 318 322 326 330 333 336 339 341 341 342 343 345 347 349 350 351 352 353 354 355 356 356 357 357 358 359 359 0 0 1 2 2 4 5
269 272 275 280 284 289 294 299 304 309 314 318 322 326 330 333 336 339 340 340 341 343 346 348 349 350 351 352 353 354 354 355 356 356 357 358 359 359 360 0 1 1 2 3
267 269 272 276 280 285 290 295 300 305 310 314 319 323 327 330 333 336 338 338 339 341 344 346 348 349 350 351 352 353 353 354 355 355 355 357 358 359 359 360 0 1 1 2
266 268 270 273 277 282 286 291 296 301 306 311 315 319 323 327 330 334 336 336 337 339 342 345 346 348 349 350 350 352 352 353 353 354 355 355 357 358 359 359 359 360 0 1
265 266 268 271 275 278 283 288 292 297 302 307 311 315 319 323 327 331 334 335 335 336 339 343 345 347 348 349 349 350 351 352 352 353 354 354 356 357 358 359 359 359 360 1
265 265 266 268 271 274 278 283 288 292 297 302 307 311 315 320 324 328 331 333 333 334 337 341 343 345 346 347 348 349 350 351 351 352 352 353 354 356 357 358 359 359 359 360
265 265 265 266 267 270 274 279 284 288 293 298 302 307 311 316 320 325 329 331 331 331 334 338 341 344 345 346 347 348 349 349 350 351 351 352 353 354 356 357 358 359 359 359
264 264 263 263 264 267 271 274 278 283 288 293 298 302 307 312 317 321 325 328 328 329 332 336 340 342 344 345 346 346 347 348 349 350 350 350 351 353 354 356 357 358 359 359
261 261 261 261 262 264 266 269 274 279 284 289 294 298 303 309 314 318 322 325 326 326 329 333 338 341 342 343 344 345 346 347 348 348 349 349 350 351 353 355 357 357 358 359
259 259 258 258 259 262 264 268 271 275 280 285 290 294 299 305 310 315 319 322 323 324 327 331 335 339 341 342 343 344 344 346 346 347 347 348 348 349 351 353 355 356 357 358
257 257 256 256 258 260 262 265 268 272 276 281 286 291 296 302 307 312 317 320 321 321 324 328 333 337 339 340 341 342 343 344 345 346 346 346 346 347 349 351 353 355 356 358
Height
5860 5856 5851 5845 5840 5832 5825 5818 5811 5803 5794 5785 5775 5765 5756 5745 5734 5723 5711 5697 5683 5669 5653 5638 5622 5606 5590 5574 5559 5544 5530 5515 5500 5485 5470 5454 5438 5422 5405 5387 5368 5350 5333 5318
5859 5855 5850 5845 5838 5831 5823 5816 5808 5799 5791 5781 5772 5761 5751 5741 5730 5718 5706 5693 5679 5664 5649 5634 5618 5602 5586 5571 5557 5542 5528 5513 5499 5484 5470 5455 5439 5423 5406 5389 5371 5354 5337 5322
5858 5853 5849 5843 5837 5829 5822 5813 5805 5796 5788 5778 5768 5758 5748 5737 5726 5714 5702 5689 5675 5661 5646 5631 5615 5599 5584 5570 5555 5541 5526 5512 5498 5484 5470 5455 5440 5424 5409 5393 5376 5359 5343 5328
5855 5852 5845 5842 5833 5826 5819 5811 5802 5793 5784 5774 5764 5754 5744 5733 5722 5710 5698 5685 5671 5657 5642 5627 5612 5597 5582 5568 5553 5539 5525 5511 5498 5485 5471 5456 5442 5427 5412 5397 5381 5366 5350 5335
5851 5847 5843 5838 5830 5822 5815 5809 5800 5790 5781 5771 5761 5751 5740 5729 5718 5706 5694 5682 5668 5654 5639 5624 5609 5595 5580 5566 5552 5538 5525 5512 5499 5486 5472 5458 5444 5430 5416 5402 5387 5372 5357 5343
5846 5842 5837 5834 5826 5818 5812 5804 5796 5787 5777 5768 5757 5748 5738 5726 5714 5703 5691 5678 5664 5650 5636 5622 5607 5593 5579 5565 5551 5538 5525 5512 5500 5487 5474 5460 5447 5433 5419 5405 5392 5377 5364 5350
5843 5838 5834 5830 5822 5815 5809 5802 5793 5783 5774 5765 5755 5745 5734 5722 5711 5699 5687 5674 5661 5647 5633 5619 5605 5591 5578 5564 5551 5538 5525 5513 5501 5488 5475 5462 5449 5436 5423 5409 5396 5383 5370 5358
5838 5834 5831 5824 5818 5812 5806 5798 5789 5781 5772 5762 5752 5741 5730 5719 5707 5696 5684 5671 5658 5645 5631 5617 5603 5590 5576 5563 5550 5537 5525 5513 5502 5490 5477 5465 5453 5440 5428 5415 5403 5391 5379 5367
5834 5832 5825 5820 5814 5808 5802 5794 5786 5778 5769 5759 5749 5738 5727 5715 5704 5692 5680 5668 5656 5642 5629 5615 5602 5588 5575 5562 5549 5537 5525 5513 5502 5491 5479 5468 5456 5445 5433 5421 5410 5398 5387 5375
5828 5826 5821 5815 5809 5803 5797 5790 5782 5774 5765 5756 5745 5735 5724 5712 5701 5689 5677 5665 5653 5640 5627 5614 5600 5587 5574 5561 5549 5537 5525 5514 5502 5491 5480 5470 5459 5449 5438 5427 5416 5404 5393 5381
5822 5819 5816 5811 5805 5799 5793 5785 5778 5770 5761 5752 5742 5732 5721 5709 5698 5686 5675 5663 5651 5638 5626 5613 5599 5586 5574 5561 5548 5537 5525 5514 5503 5492 5481 5471 5461 5451 5441 5430 5418 5408 5398 5387
5814 5812 5808 5805 5799 5793 5787 5780 5773 5765 5757 5748 5738 5728 5717 5706 5695 5683 5672 5660 5648 5636 5624 5611 5598 5585 5573 5560 5548 5537 5526 5515 5505 5494 5484 5473 5463 5452 5441 5432 5422 5411 5401 5391
5805 5803 5800 5797 5792 5786 5780 5774 5768 5760 5752 5744 5734 5725 5714 5703 5692 5680 5669 5658 5646 5634 5622 5610 5597 5585 5572 5560 5548 5537 5526 5516 5506 5496 5486 5476 5466 5456 5446 5435 5425 5415 5406 5397
5796 5794 5792 5789 5784 5779 5774 5768 5762 5755 5747 5739 5730 5720 5710 5699 5688 5677 5666 5655 5644 5632 5620 5608 5596 5584 5571 5560 5548 5537 5527 5516 5507 5497 5487 5477 5467 5457 5448 5438 5429 5420 5410 5401
5789 5785 5783 5780 5776 5771 5766 5761 5755 5748 5741 5734 5725 5716 5706 5696 5685 5674 5663 5652 5641 5630 5618 5606 5595 5583 5571 5559 5548 5537 5526 5516 5506 5497 5487 5478 5468 5459 5449 5440 5431 5422 5414 5405
5779 5777 5774 5771 5767 5763 5758 5753 5748 5742 5735 5728 5720 5711 5702 5692 5682 5671 5660 5649 5638 5627 5616 5605 5593 5582 5570 5559 5548 5537 5526 5516 5507 5497 5488 5479 5469 5460 5451 5441 5433 5424 5416 5408
5768 5767 5764 5761 5757 5754 5750 5745 5740 5734 5728 5721 5714 5706 5697 5687 5677 5667 5656 5646 5635 5625 5614 5603 5592 5580 5569 5558 5547 5536 5526 5516 5507 5497 5489 5480 5470 5461 5452 5443 5434 5425 5417 5409
5755 5754 5752 5750 5747 5743 5740 5736 5731 5726 5721 5714 5708 5700 5692 5683 5673 5663 5653 5642 5632 5621 5611 5600 5589 5578 5568 5557 5546 5536 5525 5516 5506 5497 5488 5480 5471 5462 5453 5444 5435 5426 5418 5410
5741 5740 5739 5737 5735 5732 5729 5725 5721 5717 5712 5706 5700 5693 5686 5677 5668 5659 5648 5638 5628 5618 5608 5598 5587 5576 5566 5555 5545 5535 5525 5515 5506 5497 5488 5480 5471 5462 5453 5444 5436 5428 5420 5412
5725 5725 5724 5723 5722 5720 5717 5714 5711 5707 5703 5698 5692 5686 5679 5671 5663 5653 5644 5634 5624 5614 5605 5595 5584 5574 5564 5554 5543 5534 5524 5514 5505 5496 5487 5479 5471 5462 5454 5445 5437 5429 5421 5413
5706 5708 5709 5709 5709 5707 5705 5702 5699 5696 5693 5689 5684 5678 5672 5664 5656 5647 5638 5629 5620 5610 5601 5591 5581 5571 5561 5551 5542 5532 5522 5513 5504 5495 5487 5479 5470 5462 5454 5446 5437 5430 5422 5415
5687 5690 5692 5694 5694 5693 5691 5690 5688 5685 5682 5678 5674 5669 5663 5657 5649 5641 5633 5624 5614 5605 5596 5587 5578 5568 5559 5549 5539 5530 5521 5512 5503 5494 5486 5478 5470 5462 5454 5446 5438 5430 5423 5415
5668 5672 5675 5678 5679 5678 5677 5676 5675 5673 5671 5667 5664 5659 5654 5649 5642 5634 5626 5618 5609 5600 5591 5583 5574 5565 5556 5546 5537 5528 5519 5510 5502 5493 5485 5477 5469 5462 5454 5446 5438 5431 5423 5416
5650 5654 5657 5659 5660 5661 5662 5662 5660 5660 5658 5656 5653 5649 5645 5640 5634 5627 5619 5611 5603 5594 5586 5578 5570 5561 5552 5543 5534 5526 5517 5508 5500 5491 5483 5476 5468 5461 5454 5446 5439 5431 5424 5417
5630 5635 5639 5642 5643 5645 5645 5645 5646 5646 5645 5644 5641 5638 5635 5630 5625 5619 5612 5604 5596 5588 5581 5573 5565 5557 5548 5540 5531 5523 5514 5506 5498 5490 5482 5474 5467 5460 5453 5446 5438 5431 5424 5417
5612 5617 5621 5624 5626 5628 5629 5630 5631 5632 5632 5631 5629 5627 5624 5620 5615 5610 5603 5596 5589 5582 5575 5567 5560 5552 5544 5536 5528 5520 5512 5504 5496 5487 5480 5472 5465 5458 5452 5445 5438 5431 5424 5417
5594 5599 5604 5607 5610 5612 5614 5615 5617 5618 5618 5618 5617 5615 5613 5610 5605 5600 5594 5588 5581 5574 5568 5561 5554 5547 5539 5532 5524 5516 5508 5501 5493 5485 5477 5470 5463 5457 5450 5444 5437 5430 5424 5417